COSMOS 2251 DEB, 34614

Orbit data source: Space-Track

COSMOS 2251 DEB, 34614 is space debris in LEO originally from a launch on Wed, 16 Jun 1993 UTC launched from the Plesetsk Missile And Space Complex (PKMTR). The debris from Iridium 33, an American commercial communications satellite, has been tracked extensively since its accidental collision with the defunct Russian satellite Cosmos 2251 in 2009. This event, occurring at high speed in low Earth orbit (LEO), generated thousands of pieces of space debris, significantly increasing the risk of further collisions. The Iridium 33 debris cloud has impacted space traffic management and orbital debris mitigation strategies, making it a subject of ongoing study in space situational awareness.

Loading next visibility...
Identifier
34614, 1993-036WK
Orbit
LEO
Country
Flag of CISCIS
Related business
Manufacturer
Unknown
Mission
Spacecraft
Bus & Motor
Unknown
Mass
Unknown
Launch date (UTC)
1993-06-16 (33 years ago)
Launch vehicle
Unknown
Launch site
Plesetsk Missile And Space Complex (PKMTR)
Object type
Payload
Rocket body
Debris
Shape & HBR
Unknown shape, 1.1 m
Radar Cross Section
Medium (>0.1 m² and <1 m²)

Expand to show TLE details & history
Last TLE update: 14 hours ago

TLE from 14 hours ago
0 COSMOS 2251 DEB
1 34614U 93036WK  26257.29457881  .00004370  00000-0  16756-2 0  9996
2 34614  73.8745 205.5480 0179913 150.3716 359.8146 14.22303828886798
Epoch: 2026-09-14T07:04Z
TLE epoch observation values (Epoch: 2026-09-14T07:04:11.609Z)
Latitude
28.59041°
Longitude
-82.79372°
Altitude
691.288 km
Speed
7.581 km/s
True Right ascension
01h 06m 07s
True Declination
28° 26' 41"
Sunlit
Object was in full shadow at epoch
Visualization orbit readout
Latitude
Unknown
Longitude
Unknown
Altitude
Unknown
Speed
Unknown
Apparent Right ascension
Unknown
Apparent Declination
Unknown
Sunlit
N/A
Visualization observer readout
Local Sidereal Time
13:58:22
Azimuth
Unknown
Elevation
Unknown
Doppler factor
Unknown
Orbital elements
Apogee altitude
944.642 km
Perigee altitude
685.806 km
Semi-major axis
7,193.361 km
Eccentricity
0.01799
Inclination
73.8745°
RAAN
205.548°
Arg. of periapsis
150.3716°
True anomaly
359.80778°
Mean anomaly
359.8146°
Eccentric anomaly
359.8112°
Mean motion
3.5575 °/min
Orbital period
101.19 mins
BSTAR
0.0016756
Loading maneuver chart data...
Computing Atmospheric mass density...

Documentation

Showing up to 5 results
|